Wind_Speed
30 31 31 32 33 35 37 38 39 41 42 43 43 43 43 43 43 43 44 45 46 47 48 48 49 49 49 50 50 51 51 52 52 53 53 54 54 54 55 55 55 55 56 56 56 57 57 58 58 58 59 59 60 60 61 61 61 61 62 62 62 62 63 63 62 62 62 61 61 60 60 59 59 59 58 57 57 56 55 54 53 53 52 52 51 51
31 32 33 34 35 37 38 39 40 41 42 42 42 42 42 42 43 44 45 46 48 48 48 48 48 48 48 49 49 50 50 51 52 52 53 53 54 54 55 55 56 56 57 57 57 58 58 59 59 60 60 61 61 61 62 62 62 62 62 62 62 62 61 61 61 60 60 59 58 57 56 55 55 54 54 53 52 52 51 50 50 49 48 48 47 47
32 34 35 36 37 38 39 40 40 41 41 41 41 41 42 43 44 45 46 48 48 48 48 48 47 47 47 47 48 48 49 50 51 52 53 54 54 55 56 56 57 57 58 58 59 59 60 60 60 61 61 61 62 62 62 61 61 61 60 60 59 59 58 57 56 55 54 54 53 52 51 50 50 49 48 48 47 47 46 46 45 45 44 44 43 43
34 35 36 37 38 38 39 39 40 40 40 41 41 42 43 44 45 46 47 48 48 48 47 47 47 46 47 47 47 48 49 50 51 52 53 54 55 56 56 57 58 58 59 59 60 60 61 61 61 61 61 61 61 60 60 59 58 57 56 55 54 53 52 51 50 49 48 47 46 46 45 44 44 43 43 43 42 42 41 41 41 40 40 40 40 39
35 36 37 38 38 38 39 39 39 40 41 41 42 43 44 45 46 47 47 47 47 46 46 46 46 46 46 47 48 48 49 50 52 53 54 55 56 56 57 58 59 59 60 60 61 61 61 61 60 60 59 58 57 56 55 53 52 51 49 48 47 46 45 44 43 42 41 41 40 40 39 39 39 38 38 38 37 37 37 37 37 36 36 36 36 36
36 37 38 38 38 38 39 39 40 41 42 43 44 45 46 46 46 46 46 46 46 45 45 45 46 46 47 47 48 49 50 52 53 54 55 56 56 57 58 59 59 60 60 60 60 59 59 58 57 56 54 53 51 49 48 46 45 43 42 41 40 39 38 38 37 37 36 36 35 35 35 35 34 34 34 34 34 34 33 33 34 34 34 34 34 34
36 37 37 37 38 38 39 40 41 42 43 44 45 45 46 46 46 46 45 45 45 45 45 46 46 47 48 48 49 51 52 53 54 55 56 57 57 58 58 58 58 58 57 57 56 55 54 52 51 49 48 46 44 42 40 39 38 37 36 35 34 34 34 33 33 33 32 32 32 32 32 32 32 32 32 32 32 32 32 32 32 32 32 33 33 33
35 36 37 38 39 40 40 41 42 43 44 45 45 45 45 45 45 45 45 45 45 46 46 47 47 48 49 50 51 52 53 55 56 56 56 56 56 56 56 55 54 53 52 51 49 48 46 45 43 42 40 38 36 35 34 33 32 32 31 31 31 31 31 30 30 30 30 31 31 31 31 31 31 31 31 31 31 32 32 32 32 32 32 32 33 33
35 36 37 39 40 41 42 43 44 44 45 45 45 45 45 45 45 46 46 46 47 47 48 48 49 50 51 52 53 54 55 55 55 55 55 54 53 51 50 49 47 46 44 43 41 40 39 37 36 35 34 32 31 31 30 30 30 29 29 29 29 30 30 30 30 30 31 31 31 31 31 32 32 32 32 32 33 33 33 33 33 33 33 33 33 33
36 37 39 40 41 42 42 43 44 44 44 45 45 45 45 45 46 46 46 47 48 49 50 50 50 51 52 53 53 53 53 53 53 51 49 48 46 44 43 41 39 38 36 35 34 33 32 31 31 30 30 29 29 29 29 29 29 29 29 30 30 30 31 31 32 32 32 33 33 33 33 34 34 34 34 34 35 35 35 35 35 35 35 35 35 35
38 39 40 41 42 42 43 43 43 43 44 44 44 45 46 46 46 47 47 48 49 50 51 51 51 51 51 51 51 50 49 48 47 45 42 40 38 37 35 34 32 31 30 29 29 28 28 28 28 28 28 28 28 29 29 29 30 30 31 31 32 32 32 33 33 34 34 34 35 35 35 36 36 36 36 36 37 37 37 37 37 37 37 37 37 37
39 40 41 42 42 42 42 42 43 43 43 44 45 46 47 48 48 48 48 49 49 50 50 50 50 49 47 46 46 45 44 42 40 37 35 33 31 30 29 28 27 26 26 26 25 26 26 26 26 27 27 28 28 29 29 30 31 31 32 32 33 33 34 34 35 35 36 36 36 37 37 37 38 38 38 38 38 38 38 38 38 38 38 38 38 38
40 41 41 41 41 42 42 42 43 43 44 45 46 46 47 48 49 50 50 50 50 49 48 47 46 44 42 40 39 38 37 35 33 31 29 27 26 26 25 25 24 24 24 24 24 25 25 25 26 27 27 28 29 29 30 31 32 32 33 33 34 34 35 35 36 36 37 37 38 38 38 39 39 39 39 39 39 39 39 38 38 38 38 38 38 39
41 41 41 41 41 41 42 42 43 44 45 46 47 48 48 49 49 49 49 48 48 46 45 42 40 37 35 34 33 32 31 30 28 26 24 23 23 23 23 23 23 22 23 23 24 24 25 25 26 27 27 28 29 30 31 31 32 33 33 34 34 35 36 36 37 37 37 38 38 39 39 39 39 39 39 39 39 39 39 38 38 38 38 38 38 38
40 40 41 41 41 42 43 44 44 45 46 47 48 49 49 49 48 47 46 44 43 42 39 36 34 31 29 28 28 28 27 26 24 22 21 21 22 22 22 23 23 23 23 23 24 25 25 26 26 27 28 28 29 30 31 32 32 33 34 34 35 35 36 36 37 37 38 38 38 39 39 39 39 39 39 39 39 38 38 38 38 37 37 37 38 38
40 40 41 41 42 43 44 45 45 46 47 48 48 48 47 46 45 43 42 40 38 36 33 30 28 25 24 23 24 24 24 24 22 21 20 21 22 22 23 23 24 24 23 24 25 26 26 26 27 27 28 28 29 30 31 32 32 33 33 34 35 35 35 36 37 37 37 38 38 38 39 39 39 38 38 38 38 38 38 37 37 37 37 37 37 37
40 41 41 42 43 44 45 46 47 47 47 47 46 45 43 42 40 38 36 34 32 29 27 25 23 21 20 20 21 22 22 23 22 22 21 21 22 23 24 24 25 25 25 25 25 26 27 27 27 28 28 29 29 30 31 32 32 33 33 34 34 35 35 36 36 37 37 38 38 38 38 38 38 38 38 38 38 37 37 37 37 37 37 37 37 37
41 41 42 43 44 45 46 46 47 47 46 44 43 41 39 37 35 32 30 28 26 24 23 21 20 19 19 19 20 21 21 23 23 23 22 23 24 24 25 26 26 26 26 26 26 27 27 27 28 28 28 29 29 30 31 31 32 32 33 34 34 34 35 36 36 37 37 37 38 38 38 38 37 37 37 37 37 37 37 37 37 37 37 37 37 37
42 43 44 45 45 46 46 46 45 44 42 40 38 36 33 31 29 27 25 23 22 20 19 19 18 18 19 19 21 22 22 23 24 24 24 24 25 26 26 27 27 27 27 27 27 27 28 28 28 28 28 28 29 30 30 31 31 32 33 33 34 34 35 35 36 36 37 37 37 37 37 37 37 37 37 38 38 37 37 37 37 37 36 36 36 36
43 44 45 46 46 45 44 43 42 40 37 35 33 30 28 26 24 22 21 20 19 18 18 18 18 18 19 20 21 23 23 24 25 26 26 26 26 27 27 28 28 28 28 27 28 28 28 28 28 27 27 28 29 29 30 30 31 31 32 33 33 34 34 35 35 36 36 37 37 37 37 37 38 38 38 38 38 38 37 37 37 36 36 36 36 35
44 45 46 46 44 43 40 39 37 35 32 30 27 25 23 21 20 19 18 18 18 18 18 18 18 19 20 21 22 24 25 26 26 27 27 27 27 27 28 29 29 29 29 28 28 28 28 28 27 27 27 27 28 28 29 30 30 31 31 32 32 33 34 34 35 36 36 37 37 37 38 38 38 38 38 38 38 38 37 37 36 36 35 35 35 35
44 44 44 43 41 38 36 33 31 29 27 25 22 21 19 18 17 17 17 17 17 18 18 18 19 20 21 22 23 25 26 26 27 28 29 28 28 28 28 29 30 30 29 29 29 28 28 28 27 27 27 27 27 28 28 29 29 29 30 31 31 32 33 34 34 35 36 36 37 37 38 38 39 39 39 39 38 38 37 37 36 36 35 35 35 34
43 42 40 38 36 33 30 28 26 24 22 20 19 18 17 16 16 16 16 17 17 18 19 19 20 21 22 23 24 25 26 27 28 29 30 30 29 29 29 30 30 31 30 30 29 29 28 27 27 27 27 27 27 27 27 27 28 28 29 29 30 31 32 33 34 34 35 36 37 37 38 38 39 39 39 39 38 38 37 37 36 36 35 35 35 34
40 38 35 32 30 27 25 23 21 20 18 17 16 16 15 15 15 16 16 17 18 19 19 20 20 21 22 23 24 25 26 27 29 30 31 31 31 30 30 31 31 31 31 30 30 29 29 28 27 26 26 26 26 26 26 26 27 27 28 29 29 30 31 32 33 34 34 35 36 36 37 38 38 38 39 38 38 38 37 37 36 36 35 35 35 35
35 32 29 26 24 22 20 19 18 17 16 16 15 15 15 15 15 16 17 18 19 20 20 20 21 21 22 23 24 25 26 28 29 31 32 32 32 31 31 31 32 32 32 31 30 30 29 28 27 26 26 26 26 26 26 26 26 27 27 28 29 30 30 31 32 32 33 34 34 35 36 37 37 38 38 38 38 37 37 37 36 36 36 36 35 35
29 26 23 21 19 17 16 16 15 15 15 14 14 14 15 15 16 17 18 19 19 20 21 21 21 22 23 24 24 25 27 28 30 31 32 33 33 32 32 32 33 33 33 32 31 30 29 28 27 26 26 26 26 26 26 26 26 27 27 28 29 29 30 30 31 31 32 32 33 34 35 36 36 37 37 37 37 37 37 36 36 36 36 36 36 36
24 21 19 17 16 15 14 14 14 14 14 14 15 15 15 16 17 18 18 19 20 21 22 22 23 23 24 24 25 26 27 29 30 31 33 33 33 33 32 33 33 33 34 33 32 31 30 28 27 26 26 26 26 26 26 27 27 28 28 28 29 29 29 29 30 30 31 32 32 33 34 34 35 36 36 36 36 36 36 36 36 36 37 37 37 36
20 18 16 15 14 14 13 13 13 14 14 15 15 15 16 17 17 18 18 19 21 22 22 23 24 24 25 25 25 26 27 29 30 32 33 33 33 33 33 33 33 34 34 34 33 32 30 29 28 27 27 27 27 27 27 28 28 29 29 29 29 29 29 29 29 30 30 31 32 32 33 33 34 34 35 35 35 35 36 36 36 36 37 37 37 37
17 15 14 14 13 13 13 13 13 14 14 15 16 16 17 17 18 19 19 20 21 22 23 24 25 25 26 26 26 26 27 28 30 32 33 33 33 33 33 33 33 34 35 35 34 33 31 30 29 28 28 28 28 29 29 30 30 30 30 30 29 29 29 29 29 30 30 30 31 31 32 32 33 33 34 34 34 34 35 35 36 36 37 37 37 37
15 14 13 13 13 13 13 13 14 14 15 15 16 17 18 18 19 19 20 21 22 23 24 25 25 26 26 27 27 27 27 28 31 33 34 34 34 33 33 33 34 34 35 36 36 34 32 31 30 30 30 30 30 30 31 31 32 32 32 31 30 29 29 29 29 29 30 30 30 31 31 31 32 32 32 33 33 33 34 34 35 36 37 37 38 38
14 13 13 13 13 13 13 13 14 14 15 16 17 18 18 19 20 21 22 22 23 24 24 25 26 26 27 27 27 27 27 29 31 33 34 34 34 34 34 34 34 34 35 36 37 36 35 33 32 31 32 32 32 32 32 32 33 33 33 32 31 30 30 30 30 30 30 30 30 30 30 30 31 31 31 32 32 33 33 34 35 36 37 38 38 38
13 13 13 13 13 13 13 14 14 15 16 16 17 18 19 20 21 21 22 23 24 24 25 25 26 26 27 27 28 28 28 29 31 33 34 34 34 34 34 34 34 34 35 35 37 38 38 37 35 34 34 34 34 33 33 33 34 34 34 34 33 32 31 30 30 30 30 30 29 29 29 30 30 30 31 31 32 32 33 33 34 36 37 38 38 38
13 13 13 13 13 13 14 14 15 15 16 17 18 19 20 20 21 22 23 24 24 25 25 26 27 27 27 28 28 28 28 29 31 32 33 34 34 34 34 34 34 34 35 35 36 38 39 39 38 38 37 36 35 35 34 34 34 34 35 34 34 33 32 31 31 31 30 30 30 29 29 29 30 30 31 31 31 32 33 33 34 35 37 38 39 39
12 13 13 13 13 14 14 15 15 16 17 18 18 19 20 21 22 23 23 24 25 25 26 27 27 28 28 28 28 28 28 29 31 32 33 34 34 34 34 34 34 35 35 36 37 38 39 40 40 40 40 39 38 37 36 36 35 35 35 35 34 34 33 32 32 31 31 31 30 30 30 30 30 30 31 31 31 32 33 33 34 35 36 38 39 39
12 13 13 13 14 14 15 15 16 17 17 18 19 20 20 21 22 23 24 25 25 26 27 27 28 28 29 29 29 28 28 29 30 32 33 34 34 35 35 35 35 35 36 37 37 38 39 40 40 41 41 41 40 38 38 37 37 36 35 35 34 34 33 33 32 32 32 31 31 30 30 30 30 31 31 31 32 32 33 33 34 35 36 37 38 39
12 13 13 13 14 14 15 16 16 17 18 19 19 20 21 22 23 24 25 25 26 27 28 28 29 29 29 30 29 29 29 29 30 31 32 33 34 35 35 35 35 36 36 37 38 39 40 40 41 41 42 42 42 40 39 38 37 36 35 35 34 33 32 32 32 32 32 32 31 31 31 31 31 31 32 32 32 33 33 34 34 34 35 35 36 37
12 13 13 14 14 15 15 16 17 18 18 19 20 21 22 23 24 25 25 26 27 28 28 29 29 30 30 30 30 30 30 30 30 31 31 33 34 34 34 35 35 35 36 37 38 39 40 41 41 42 42 42 42 42 41 39 38 36 35 34 33 32 32 31 31 32 32 32 31 31 31 31 32 32 32 33 33 33 33 33 33 33 33 33 34 34
13 13 13 14 15 15 16 17 17 18 19 20 21 22 23 24 25 25 26 27 28 28 29 29 30 30 30 30 30 30 30 30 30 30 30 31 33 33 34 34 34 35 35 36 38 39 40 41 41 42 42 42 42 42 41 40 39 37 36 34 33 32 31 31 31 31 31 31 31 31 31 32 32 33 33 34 34 34 33 32 32 31 31 31 31 31
13 13 14 15 15 16 17 17 18 19 20 21 22 23 24 25 25 26 27 28 28 29 30 30 30 30 30 30 30 30 29 29 29 29 29 30 31 32 33 34 34 34 35 36 37 38 39 40 41 42 42 42 42 41 40 39 39 38 37 35 34 32 31 30 30 30 30 31 31 31 32 32 33 33 34 34 33 33 32 31 30 29 28 28 27 27
13 14 15 15 16 17 18 18 19 20 21 22 23 24 25 26 26 27 28 29 29 30 30 31 31 31 30 30 30 29 29 29 28 28 29 29 30 31 32 33 34 34 35 35 36 37 38 39 40 41 42 42 42 42 40 39 38 38 38 37 36 34 31 30 30 30 30 30 31 31 32 32 33 33 33 33 33 32 31 29 28 26 26 25 25 25
14 15 15 16 17 18 19 19 20 21 22 23 24 25 26 27 27 28 29 29 30 30 31 31 31 31 31 30 29 29 29 29 28 28 29 29 30 31 32 33 33 34 35 35 36 37 38 39 40 40 41 42 42 42 40 39 38 38 38 39 38 36 33 31 30 29 30 30 31 31 32 33 33 33 33 32 31 30 29 27 26 24 23 23 23 23
15 16 16 17 18 19 20 20 21 22 23 24 25 26 27 27 28 29 29 30 30 31 31 31 32 31 31 30 29 29 29 29 29 29 29 29 30 31 32 33 33 34 35 36 36 37 38 39 39 40 41 42 42 42 41 39 38 38 38 39 38 37 35 32 30 30 30 30 31 31 32 33 33 33 32 31 30 28 26 25 23 22 21 21 21 21
16 17 17 18 19 20 20 21 22 23 24 25 25 26 27 28 29 29 30 30 30 31 31 32 32 32 31 30 29 29 29 29 29 29 29 30 30 31 32 33 34 35 36 36 37 38 38 39 40 41 41 42 42 42 41 40 39 38 38 38 38 38 37 34 32 31 30 31 31 31 32 32 33 32 31 30 28 26 24 22 21 20 19 19 19 19
17 17 18 19 20 20 21 22 23 24 25 25 26 27 28 29 29 30 30 30 31 31 32 32 32 32 31 31 30 29 29 28 28 29 29 30 31 32 33 34 35 36 36 37 38 39 39 40 40 41 41 42 42 41 41 41 40 39 38 38 38 38 37 35 33 32 31 31 31 31 31 32 32 32 30 29 27 24 22 20 19 17 16 16 16 16
17 18 19 20 21 21 22 23 24 24 25 26 26 27 28 29 29 30 30 31 31 31 32 32 32 32 32 31 31 30 29 29 28 28 29 30 31 32 33 34 35 36 37 37 38 39 40 40 41 41 41 41 41 41 41 41 41 40 39 38 37 37 36 35 34 33 32 32 31 31 31 32 32 31 30 28 25 23 21 19 17 16 15 15 14 14
18 19 20 21 21 22 23 24 24 25 25 26 27 27 28 29 29 30 30 31 31 31 32 32 32 32 32 31 31 31 30 29 29 28 29 30 31 32 33 34 35 36 37 38 39 40 40 41 41 41 41 41 41 40 40 40 41 40 40 39 38 37 36 35 33 33 32 32 32 31 31 31 31 31 29 27 25 22 20 18 17 16 15 14 14 14
19 20 21 21 22 23 24 24 25 25 25 26 26 27 28 29 29 30 30 31 31 32 32 32 32 32 32 32 32 31 31 30 30 29 29 30 31 32 33 34 35 36 36 38 39 40 40 41 41 41 41 41 41 41 40 40 40 40 40 39 38 37 36 35 33 32 32 32 32 32 32 32 31 31 29 27 24 22 20 18 17 16 16 15 15 15
20 20 21 22 23 23 24 24 25 25 25 26 26 27 28 29 29 30 31 31 32 32 32 32 32 32 32 32 32 32 32 31 31 30 30 30 31 32 32 33 34 35 36 37 39 40 40 41 41 41 40 41 41 41 40 40 40 40 40 39 39 38 37 35 34 33 32 32 32 32 32 32 32 31 30 27 25 23 20 19 18 17 17 17 17 17
20 21 22 22 23 23 24 24 24 25 25 26 26 27 28 29 29 30 31 32 32 32 33 33 33 33 33 33 33 33 32 32 32 32 31 31 31 32 32 33 34 35 36 37 38 40 40 41 40 40 40 40 41 41 41 40 40 40 40 40 39 39 38 37 35 34 33 33 32 32 32 32 32 31 30 29 27 24 22 20 19 19 18 19 19 20
21 22 22 23 23 23 24 24 24 25 25 26 27 27 28 29 30 31 31 32 33 33 34 34 34 34 34 34 33 33 33 33 33 32 32 32 32 33 33 33 34 35 36 37 39 40 41 41 41 40 39 39 40 41 41 41 41 40 40 40 40 39 39 38 37 36 35 34 33 33 32 32 32 31 31 30 28 26 23 22 21 20 20 21 21 22
22 22 23 23 23 23 24 24 25 25 26 26 27 28 29 29 30 31 32 33 34 34 35 35 35 35 35 34 34 34 34 34 33 33 33 33 33 33 33 34 34 35 37 38 40 41 42 43 42 41 39 38 38 39 41 41 41 41 41 40 40 39 39 39 38 37 36 35 34 33 33 32 32 31 31 31 30 28 26 24 22 22 22 22 23 23
Wind_Direction
282 283 284 285 285 285 286 286 287 287 287 287 287 288 288 288 288 288 288 288 288 288 289 290 291 292 293 293 293 293 293 293 293 293 292 292 292 291 291 291 291 291 291 291 291 291 291 291 291 291 291 291 291 291 290 290 290 289 289 289 288 288 287 287 286 286 285 285 285 284 284 284 283 283 283 283 282 282 282 281 281 281 280 280 280 279
284 285 285 285 285 285 285 286 286 286 287 287 288 288 288 288 288 288 288 288 289 289 290 291 293 294 294 294 295 294 294 294 293 293 292 292 292 292 292 292 292 292 292 292 292 292 292 292 292 292 292 291 291 291 291 291 290 290 289 289 288 288 287 287 286 286 285 285 284 284 284 283 283 283 283 283 282 282 282 281 281 281 280 280 279 279
285 284 284 284 284 284 285 285 286 286 286 287 287 287 288 288 288 288 288 289 289 291 292 293 294 295 295 295 294 294 293 293 293 292 292 292 292 292 292 292 292 293 293 293 293 293 293 293 292 292 292 292 292 291 291 291 290 290 289 289 288 288 287 287 286 286 285 285 284 284 284 283 283 283 283 283 283 282 282 282 282 281 281 280 280 279
284 283 283 284 284 284 284 285 285 285 286 286 287 287 287 288 288 288 289 290 291 292 293 294 295 295 295 294 293 293 293 292 292 292 292 292 293 293 293 293 293 293 293 293 293 293 293 293 292 292 292 292 292 291 291 291 290 290 289 289 288 288 287 287 286 286 286 285 285 285 284 284 284 284 284 283 283 283 283 283 282 282 281 281 280 279
283 283 283 284 284 285 285 286 286 287 287 287 288 288 288 288 289 289 290 291 293 294 294 295 294 294 294 293 293 293 292 292 292 292 292 293 293 293 293 293 293 293 293 293 293 293 293 293 292 292 292 292 292 292 291 291 290 290 289 289 289 288 288 287 287 287 287 286 286 286 286 285 285 285 285 284 284 284 284 283 283 282 282 281 281 280
283 283 283 284 285 285 286 287 288 288 289 289 289 289 289 290 290 291 292 293 294 294 294 294 294 293 293 293 293 293 293 293 292 292 292 293 293 293 293 293 293 293 293 293 293 293 293 293 293 293 293 293 292 292 292 291 291 290 290 290 289 289 289 289 288 288 288 288 287 287 287 287 286 286 285 285 285 284 284 283 283 282 282 281 281 280
282 283 284 285 286 287 288 288 289 289 289 289 290 290 291 291 292 293 293 294 294 294 294 294 294 294 294 294 294 293 293 293 292 292 292 292 293 293 293 293 293 293 293 293 293 294 294 294 294 294 294 294 294 294 293 293 293 292 292 292 291 291 291 291 290 290 290 289 289 289 288 288 287 287 286 286 285 285 284 283 283 282 282 281 281 280
283 285 286 287 288 289 289 289 290 290 290 290 291 292 293 293 294 294 295 295 295 295 295 295 294 294 294 294 294 293 293 292 292 292 292 293 293 293 293 293 294 294 294 294 294 295 295 295 295 296 296 296 296 296 296 296 295 295 295 295 294 294 294 293 293 292 292 292 291 291 290 289 289 288 287 287 286 285 285 284 283 283 282 282 281 281
285 286 288 288 289 289 290 290 290 291 292 292 293 294 294 294 295 295 296 296 296 296 295 295 295 295 294 294 294 293 293 293 293 293 293 294 294 294 294 295 295 295 295 296 296 297 297 297 298 299 299 299 299 299 299 298 298 298 298 297 297 297 296 296 295 295 294 294 293 293 292 291 291 290 289 288 288 287 286 286 285 284 284 283 282 282
287 287 288 288 288 289 290 291 292 292 293 294 294 295 295 295 296 296 296 296 296 296 296 296 296 295 295 295 295 294 294 294 294 295 295 296 296 296 296 296 297 297 297 298 298 299 299 300 300 301 301 302 302 301 301 301 300 300 300 299 299 299 298 298 297 297 296 296 295 294 294 293 292 292 291 290 289 289 288 288 287 286 286 285 285 284
287 287 288 288 289 290 291 292 293 293 294 294 295 295 295 296 296 297 297 297 297 297 297 297 297 297 297 297 296 296 295 296 296 297 297 298 298 298 298 298 299 299 300 300 300 301 301 301 302 302 302 302 302 302 302 302 301 301 301 300 300 300 299 299 298 298 297 297 296 295 295 294 293 292 292 291 290 290 289 289 288 288 288 287 287 286
287 288 289 289 291 292 293 293 293 294 294 295 295 296 296 297 297 298 298 298 298 298 298 298 298 298 298 298 298 297 297 297 298 299 300 300 300 300 300 300 300 301 302 302 302 302 302 302 302 302 302 302 302 302 302 302 301 301 301 301 300 300 299 299 298 298 297 297 296 295 294 294 293 292 292 291 291 290 290 290 289 289 289 289 288 287
288 289 291 292 293 293 294 294 294 295 296 296 297 298 298 299 299 299 299 299 299 299 299 299 299 300 300 299 299 298 298 299 300 301 302 301 301 301 301 301 302 302 303 302 302 302 302 302 302 302 302 302 302 301 301 301 301 301 300 300 300 299 299 298 298 297 296 296 295 294 294 293 292 292 291 291 290 290 290 290 290 290 289 289 288 288
291 292 293 294 294 294 294 295 296 297 298 298 299 299 299 300 300 300 300 300 300 300 300 300 301 301 301 300 299 299 299 300 302 303 303 303 302 302 302 302 302 303 303 302 302 301 302 302 302 302 302 301 301 301 300 300 300 300 299 299 299 298 298 297 296 296 295 294 294 293 292 292 291 291 291 290 290 290 290 290 290 289 289 289 288 288
293 294 294 295 295 296 296 297 298 298 299 300 300 300 300 300 300 300 301 301 301 301 301 302 302 303 302 300 299 299 300 301 303 304 305 304 302 302 302 302 303 303 303 303 302 302 302 302 301 301 301 301 300 300 300 299 299 299 298 298 298 297 296 296 295 295 294 293 293 292 291 291 291 290 290 290 290 290 290 290 290 289 289 289 288 288
294 295 295 296 297 297 298 299 299 300 300 300 300 301 301 301 301 301 301 301 301 302 302 303 303 303 302 300 299 299 301 302 304 305 306 305 303 302 303 303 303 304 304 303 302 302 302 302 301 301 301 301 300 300 299 299 299 298 298 297 297 297 296 295 295 294 293 293 292 292 291 291 291 291 291 291 291 291 291 291 290 290 290 289 289 289
295 295 296 297 298 298 299 300 300 300 301 301 301 301 301 301 301 302 302 302 302 303 303 303 303 302 301 300 299 300 302 304 305 306 307 306 304 304 304 304 304 304 305 304 303 302 302 302 302 302 301 301 301 300 300 299 299 299 298 298 297 297 297 296 295 295 294 293 293 292 292 292 292 292 292 292 292 292 292 292 291 291 291 291 290 290
296 296 297 298 298 299 299 300 301 301 301 301 301 301 301 302 302 302 302 302 303 303 304 304 303 303 302 301 300 301 303 304 305 306 307 306 305 305 305 305 304 304 305 304 304 303 303 303 303 303 303 302 302 301 301 301 300 300 300 299 299 298 298 297 296 295 295 294 294 294 294 294 294 294 294 293 293 293 293 293 293 293 292 292 291 291
297 297 298 298 299 300 300 301 301 301 301 301 302 302 302 302 302 303 303 303 303 304 304 305 305 305 304 303 302 303 305 305 305 306 307 307 306 305 305 305 305 305 305 305 305 304 304 304 304 305 305 304 303 303 302 302 302 301 301 301 300 299 299 298 297 296 296 295 295 295 295 295 295 295 295 294 294 294 294 294 294 294 293 293 292 291
298 298 299 299 300 301 301 302 302 302 302 302 302 302 302 302 302 302 303 303 304 304 305 306 307 306 306 305 305 305 306 306 306 306 306 307 306 306 306 306 305 305 306 306 305 305 305 306 306 307 306 305 305 304 304 303 303 303 302 302 301 300 299 299 298 297 297 297 297 297 297 296 296 296 295 295 295 295 295 295 295 294 294 293 292 291
299 299 300 301 301 302 303 303 302 302 302 302 302 302 302 302 302 302 303 304 304 306 307 307 307 307 307 307 306 306 307 307 306 306 306 307 307 306 306 306 306 306 306 306 306 306 307 307 308 308 308 307 306 305 305 304 304 303 303 302 301 301 300 299 299 299 298 298 298 298 298 297 297 296 296 296 296 296 296 295 295 295 294 293 292 291
300 300 301 302 302 303 303 303 302 301 301 302 302 302 302 302 303 303 304 305 306 307 308 309 309 308 309 308 307 307 307 307 307 307 307 307 307 307 307 307 306 306 307 307 307 308 308 309 310 310 309 308 307 306 306 305 305 304 303 303 302 301 301 300 300 299 299 298 298 298 297 297 296 296 296 296 296 296 296 296 295 295 294 293 292 291
301 301 302 302 303 303 303 302 301 300 300 301 301 302 302 303 304 304 305 306 306 307 308 309 309 309 309 309 308 308 308 308 308 307 307 308 308 308 308 308 308 307 308 308 309 309 310 311 311 311 310 309 308 307 307 306 306 305 304 303 303 302 301 300 299 299 298 297 297 296 296 295 295 295 295 295 296 296 296 296 295 295 294 293 292 292
301 302 302 302 302 302 301 300 300 299 299 300 301 302 303 304 304 305 305 306 307 307 308 308 309 309 309 310 310 310 310 310 310 309 309 309 309 310 310 310 309 308 309 309 310 310 311 312 312 312 311 310 309 308 308 308 307 306 305 304 303 302 301 300 299 298 297 296 295 294 294 294 294 294 294 294 295 295 295 295 295 294 294 293 292 292
302 302 302 302 301 300 299 298 298 298 299 300 301 302 304 304 305 305 306 306 307 307 308 309 310 310 310 311 312 312 311 311 311 311 310 310 310 311 311 311 310 310 310 310 310 311 311 312 312 312 311 310 310 309 309 309 308 307 306 305 303 302 301 300 299 298 296 295 294 294 293 293 293 293 293 294 294 294 295 295 294 294 293 293 292 292
302 302 301 301 299 298 297 297 297 297 299 300 301 302 304 304 305 305 306 307 307 308 309 310 311 312 313 314 314 314 313 313 312 311 311 311 311 312 313 312 311 310 310 310 310 311 311 312 312 312 311 311 311 310 310 310 309 308 306 305 304 303 302 301 300 299 297 296 295 294 293 293 293 293 293 293 293 294 294 294 294 293 293 293 292 292
302 302 301 300 299 297 297 296 297 298 299 300 301 302 303 304 305 306 306 307 308 309 311 312 313 314 315 316 317 316 315 314 313 312 312 312 312 313 313 313 311 310 310 310 310 310 311 312 313 313 312 311 311 311 311 311 310 309 308 307 306 305 304 303 301 300 299 297 296 295 294 294 293 293 293 293 293 293 293 293 293 293 293 292 292 293
302 301 301 300 299 298 297 297 298 299 299 301 301 302 303 304 305 306 307 308 310 311 313 314 316 317 317 318 318 318 317 315 313 312 312 312 312 313 313 312 311 310 310 309 309 310 311 313 313 313 312 312 312 312 313 312 312 311 310 309 308 308 306 305 303 301 300 298 297 296 295 294 293 293 293 292 292 292 292 292 292 292 292 292 292 293
301 301 300 299 298 297 297 297 298 298 299 300 301 302 303 305 306 308 309 311 312 314 315 317 318 318 319 319 319 319 317 315 313 312 312 312 312 313 313 312 312 311 311 310 310 310 312 313 314 314 314 314 314 315 316 315 315 314 313 312 311 310 308 306 304 302 300 298 297 296 295 294 293 293 292 292 292 292 292 292 292 292 292 292 292 293
300 299 298 298 297 296 296 296 296 297 298 299 301 303 305 307 309 311 312 314 315 316 317 318 318 319 319 319 319 319 318 316 314 313 313 313 313 314 314 313 313 313 313 312 312 312 312 314 315 316 316 317 317 318 319 318 317 316 315 314 313 312 310 307 305 302 300 299 297 296 295 294 294 293 293 292 292 292 292 292 292 292 292 292 292 293
297 296 296 295 294 294 294 294 295 296 298 301 303 306 308 310 312 313 315 316 317 317 318 318 319 319 319 319 320 320 319 317 315 314 314 314 314 315 315 315 315 315 314 314 314 314 315 316 317 318 318 319 320 321 321 320 319 317 316 315 314 313 311 309 306 303 301 299 298 297 296 295 295 294 293 293 293 293 293 293 293 293 293 293 293 293
294 292 291 291 291 291 292 294 296 298 301 304 306 309 311 313 314 315 316 316 317 317 318 318 318 319 319 319 320 320 320 318 315 314 314 314 315 315 315 315 316 316 316 316 316 317 317 318 320 320 320 321 322 322 322 321 320 318 318 317 316 315 313 310 307 305 303 301 300 299 298 297 296 296 295 295 295 295 295 295 294 294 294 294 294 294
289 288 288 288 289 290 293 295 299 301 304 307 309 311 313 314 315 315 316 316 316 317 317 317 318 318 319 319 320 320 319 318 316 315 314 314 315 315 316 316 317 317 318 318 318 319 319 320 321 322 322 323 323 323 322 322 321 320 319 318 317 316 314 312 309 307 305 303 302 301 300 299 298 298 297 297 296 296 296 296 295 295 295 295 294 294
286 286 287 288 290 293 296 300 302 305 307 309 311 312 313 313 314 315 315 315 316 316 316 317 317 318 318 319 319 320 319 318 316 315 315 315 315 316 317 318 319 319 319 319 320 320 320 321 322 322 322 323 323 323 323 322 322 321 320 320 319 317 316 314 312 309 308 306 305 304 303 302 301 300 299 298 298 297 297 296 296 295 295 295 295 294
285 286 289 291 294 297 300 303 305 307 308 309 310 311 312 313 313 314 314 315 315 316 316 316 317 317 318 318 319 319 319 318 316 316 316 316 317 317 318 320 320 320 320 320 320 320 320 321 321 321 322 322 323 323 323 323 322 322 322 321 320 319 317 316 314 311 310 308 307 307 305 304 302 301 300 300 299 298 298 297 296 296 295 295 294 294
287 289 293 295 298 300 302 304 306 307 308 308 309 310 311 312 312 313 314 314 315 315 315 316 316 316 317 317 318 318 318 318 317 317 317 317 318 319 319 320 321 321 320 320 320 320 320 320 321 321 321 321 322 323 323 323 323 323 322 322 320 319 318 316 314 312 311 310 309 308 306 305 304 303 302 301 301 300 299 298 298 297 296 295 294 294
290 293 296 298 299 301 303 304 305 306 307 308 308 309 310 311 312 313 313 314 314 315 315 315 315 315 315 316 317 317 318 318 318 318 318 318 318 318 319 319 320 320 320 319 319 319 320 320 320 321 321 321 321 322 323 324 324 323 323 322 321 319 318 317 315 313 312 310 309 308 307 306 305 305 304 303 303 302 301 300 299 298 297 295 294 294
293 295 297 298 300 301 303 304 305 306 306 307 308 309 310 311 311 312 313 313 313 314 314 314 314 314 314 315 316 316 317 317 318 318 318 318 317 317 317 318 318 318 318 318 318 318 319 319 319 320 320 320 321 322 323 324 324 324 323 322 321 321 320 318 316 314 313 311 310 309 309 308 307 306 306 305 304 304 303 302 300 299 297 295 294 293
294 296 298 299 300 301 303 304 305 305 306 307 308 309 310 310 311 312 312 313 313 313 313 313 313 313 314 314 315 315 316 316 317 317 316 316 315 315 315 315 316 316 316 316 317 317 318 318 318 319 319 320 320 321 323 324 325 325 324 323 322 322 321 320 319 317 314 313 311 310 309 309 308 307 307 306 306 305 304 303 301 300 298 296 295 294
296 297 299 300 301 302 303 304 304 305 306 307 308 309 309 310 311 311 312 312 312 312 312 312 312 313 313 313 314 314 315 315 315 315 314 314 313 313 313 313 314 314 315 315 316 316 317 317 318 319 319 320 320 321 323 324 326 326 325 324 323 323 324 323 321 318 315 313 312 311 310 309 309 308 308 308 307 306 306 304 303 301 300 299 298 296
298 299 300 301 301 302 303 303 304 305 306 307 308 308 309 310 310 311 311 312 312 312 312 312 312 312 313 313 313 313 313 313 313 313 312 312 311 311 311 312 312 313 313 314 315 315 316 317 318 319 319 320 320 321 323 325 326 326 325 325 324 324 325 325 323 320 316 314 313 312 311 310 310 310 309 309 308 308 306 305 304 303 302 301 300 300
299 300 301 301 302 303 303 304 305 305 306 307 308 309 309 310 310 310 311 311 311 311 311 311 311 311 312 312 312 312 312 311 311 311 311 310 310 310 310 310 311 311 312 313 314 316 317 317 318 319 320 320 320 321 323 325 326 327 326 325 324 324 324 325 324 321 317 315 314 313 312 312 311 311 310 309 308 307 305 304 303 302 302 301 301 301
300 301 302 302 303 303 304 305 305 306 307 308 308 309 309 309 310 310 311 311 311 310 310 310 310 311 311 311 312 311 311 310 310 309 309 309 308 309 309 309 310 311 312 313 314 316 317 318 319 319 320 320 321 322 323 325 326 326 326 325 324 324 324 325 324 321 318 316 315 314 313 312 311 310 310 309 307 305 303 301 300 300 300 299 300 301
301 302 303 303 304 304 305 306 306 307 308 308 309 309 309 309 310 310 310 311 311 311 311 311 311 311 312 312 311 310 309 309 308 307 307 307 307 307 308 309 310 311 312 313 315 316 317 318 319 320 320 320 321 322 324 325 325 325 325 325 324 323 323 324 323 321 318 316 315 314 313 312 311 310 309 308 305 302 299 297 296 295 295 295 296 298
303 303 304 305 305 306 307 307 307 308 308 309 309 309 309 309 309 310 310 311 311 311 311 311 312 312 312 312 311 310 309 308 307 306 306 306 306 306 307 309 310 311 312 313 314 315 316 317 318 319 320 320 321 323 324 324 324 324 324 324 323 323 322 322 322 320 318 317 315 315 314 313 312 311 309 307 304 300 296 293 290 289 288 288 291 294
304 305 306 306 307 307 307 308 308 308 309 309 309 309 309 309 310 310 310 311 311 312 312 312 312 312 312 312 312 311 309 308 307 305 305 305 305 306 307 308 309 310 312 312 313 314 315 316 317 318 320 321 322 323 324 324 323 322 322 323 322 322 321 321 320 319 318 317 316 315 315 314 313 311 309 306 302 296 292 288 285 282 281 282 284 288
306 307 307 308 308 308 308 308 308 308 309 309 309 309 309 310 310 311 311 311 312 312 312 313 313 313 313 313 312 311 309 308 307 305 304 304 304 305 306 307 308 309 310 311 312 312 313 315 316 318 319 320 321 322 323 323 322 321 321 322 321 321 321 320 320 319 317 317 316 316 315 314 313 312 309 305 300 294 288 283 279 276 275 277 280 283
308 308 308 308 308 308 308 307 308 308 308 309 309 310 310 310 311 311 311 312 312 312 313 313 313 313 313 313 312 311 309 308 307 306 305 305 304 305 305 306 307 308 309 309 310 311 312 313 315 316 318 320 321 321 321 321 321 321 321 321 321 321 320 320 320 319 318 317 316 316 315 315 314 312 310 305 299 292 285 279 274 271 271 273 277 280
308 308 308 307 307 307 307 307 308 308 309 309 310 310 311 311 311 311 311 312 312 312 313 313 313 313 313 312 312 311 309 309 308 307 306 305 305 305 305 306 306 307 308 308 309 310 311 312 313 315 317 319 320 321 321 321 321 321 321 321 321 321 320 320 320 320 319 318 317 316 315 315 313 312 310 306 301 294 286 278 272 269 269 271 275 278
307 307 307 306 306 306 307 307 308 309 309 310 310 310 311 311 311 311 312 312 312 312 313 313 313 312 312 312 311 310 309 309 308 307 306 306 305 305 305 306 307 307 308 308 309 309 310 311 312 314 317 319 320 321 321 321 321 321 321 321 321 321 320 320 320 320 319 318 317 316 315 314 313 311 309 306 301 296 289 280 273 269 268 270 273 276
307 306 306 306 306 307 307 308 309 309 310 310 311 311 311 311 312 312 312 312 312 312 312 313 312 312 312 312 311 310 309 308 308 307 306 306 306 306 306 307 307 308 309 309 309 309 310 310 312 314 317 320 321 321 320 321 321 321 321 321 321 320 320 320 319 319 318 317 316 315 314 313 311 310 307 305 302 298 292 284 277 271 270 270 272 274
Height
3054 3054 3054 3054 3054 3053 3053 3053 3053 3052 3051 3051 3050 3049 3048 3047 3047 3046 3045 3045 3044 3043 3042 3041 3040 3039 3038 3037 3036 3034 3033 3032 3031 3029 3028 3027 3026 3025 3024 3023 3022 3021 3020 3019 3018 3017 3016 3015 3014 3013 3012 3011 3010 3009 3008 3007 3007 3006 3005 3004 3003 3002 3002 3000 2999 2998 2997 2997 2996 2994 2993 2992 2991 2990 2990 2989 2989 2988 2988 2987 2987 2986 2986 2986 2985 2985
3051 3051 3051 3051 3051 3051 3050 3050 3049 3048 3047 3047 3046 3046 3045 3044 3043 3043 3042 3041 3041 3040 3039 3037 3037 3036 3035 3033 3032 3031 3029 3028 3027 3025 3024 3023 3022 3021 3020 3018 3017 3017 3016 3014 3013 3012 3011 3010 3009 3008 3007 3006 3005 3004 3003 3002 3002 3001 3000 2999 2998 2997 2996 2995 2994 2993 2992 2991 2990 2989 2988 2987 2987 2986 2985 2984 2984 2983 2983 2982 2982 2982 2982 2981 2981 2981
3049 3048 3048 3048 3048 3048 3047 3047 3046 3045 3044 3043 3042 3042 3042 3041 3040 3040 3039 3038 3037 3036 3035 3034 3033 3032 3031 3030 3029 3028 3026 3025 3023 3022 3020 3019 3017 3017 3015 3014 3013 3012 3011 3010 3009 3007 3007 3005 3004 3003 3002 3001 3000 2999 2998 2998 2997 2996 2995 2994 2993 2992 2991 2990 2989 2988 2987 2986 2985 2984 2983 2983 2982 2981 2981 2980 2980 2979 2979 2978 2978 2977 2977 2977 2977 2977
3047 3046 3046 3046 3045 3045 3044 3043 3042 3042 3041 3040 3040 3039 3039 3038 3037 3036 3035 3035 3033 3032 3032 3031 3030 3029 3028 3027 3026 3025 3023 3021 3020 3018 3017 3015 3014 3012 3011 3010 3009 3007 3006 3005 3004 3003 3002 3001 3000 2999 2998 2997 2996 2995 2994 2993 2992 2991 2990 2989 2988 2987 2986 2985 2984 2983 2982 2981 2981 2980 2979 2978 2978 2977 2977 2976 2976 2975 2975 2975 2974 2974 2973 2973 2973 2973
3044 3043 3042 3042 3042 3041 3041 3040 3039 3038 3037 3037 3037 3036 3035 3035 3034 3033 3032 3031 3030 3029 3028 3028 3027 3026 3025 3024 3022 3021 3019 3017 3016 3014 3013 3012 3010 3009 3007 3006 3004 3003 3002 3001 2999 2998 2997 2996 2995 2994 2993 2992 2992 2991 2990 2989 2988 2987 2986 2984 2983 2982 2982 2981 2980 2979 2978 2977 2977 2976 2975 2975 2974 2974 2973 2973 2972 2972 2972 2971 2971 2970 2970 2970 2969 2969
3041 3040 3040 3039 3038 3038 3037 3037 3036 3035 3034 3034 3033 3032 3032 3031 3030 3029 3028 3028 3027 3027 3026 3025 3024 3022 3021 3020 3018 3017 3015 3014 3012 3011 3009 3008 3006 3005 3003 3002 3001 2999 2998 2996 2995 2994 2993 2992 2991 2990 2989 2988 2987 2987 2986 2984 2983 2982 2982 2981 2980 2979 2978 2977 2976 2976 2975 2974 2973 2973 2972 2972 2971 2971 2970 2970 2969 2969 2969 2968 2968 2967 2967 2967 2967 2967
3038 3037 3037 3036 3035 3035 3034 3034 3033 3032 3032 3031 3030 3029 3028 3027 3027 3026 3025 3024 3024 3023 3022 3021 3020 3019 3018 3016 3015 3013 3011 3010 3008 3007 3005 3004 3002 3001 2999 2998 2997 2995 2994 2992 2991 2990 2989 2988 2987 2986 2985 2984 2983 2982 2982 2981 2980 2979 2978 2977 2976 2976 2975 2974 2973 2972 2972 2971 2971 2970 2969 2969 2968 2968 2967 2967 2967 2966 2966 2966 2965 2965 2964 2964 2964 2964
3036 3035 3034 3033 3032 3032 3031 3031 3030 3029 3028 3027 3027 3026 3025 3024 3023 3022 3022 3021 3020 3019 3018 3017 3016 3015 3014 3012 3011 3009 3007 3006 3004 3002 3001 3000 2998 2997 2996 2994 2993 2991 2990 2989 2987 2986 2985 2984 2983 2982 2982 2981 2980 2979 2978 2977 2977 2976 2975 2974 2973 2972 2972 2971 2970 2970 2969 2968 2968 2967 2967 2966 2966 2965 2964 2964 2964 2963 2963 2962 2962 2962 2962 2961 2961 2961
3033 3032 3031 3031 3030 3029 3028 3027 3027 3026 3025 3024 3023 3022 3022 3021 3020 3019 3018 3017 3016 3015 3014 3013 3012 3011 3010 3008 3006 3004 3002 3001 2999 2998 2997 2996 2994 2993 2992 2990 2989 2988 2987 2985 2984 2983 2982 2981 2980 2980 2979 2978 2977 2976 2976 2975 2974 2973 2972 2972 2971 2970 2969 2968 2967 2967 2966 2966 2965 2964 2964 2963 2962 2962 2962 2961 2961 2960 2960 2959 2959 2959 2958 2958 2958 2957
3030 3030 3029 3028 3027 3027 3026 3024 3023 3023 3022 3021 3020 3019 3018 3017 3017 3016 3015 3014 3013 3011 3010 3009 3008 3007 3005 3003 3002 3000 2997 2996 2995 2994 2993 2992 2990 2989 2988 2987 2986 2985 2984 2983 2982 2981 2980 2979 2978 2977 2977 2976 2975 2974 2973 2972 2972 2971 2970 2969 2968 2967 2967 2966 2965 2964 2963 2962 2962 2961 2961 2960 2959 2959 2958 2958 2957 2957 2956 2956 2956 2955 2955 2955 2955 2954
3027 3027 3026 3025 3024 3023 3023 3022 3021 3020 3019 3018 3017 3016 3015 3014 3013 3012 3012 3011 3009 3008 3006 3004 3003 3002 3000 2998 2997 2995 2993 2992 2991 2990 2990 2988 2987 2986 2985 2984 2983 2982 2982 2981 2980 2979 2978 2977 2977 2976 2975 2974 2973 2972 2971 2970 2969 2968 2967 2967 2966 2965 2964 2963 2962 2961 2961 2960 2959 2958 2957 2957 2956 2956 2955 2954 2954 2953 2953 2952 2952 2952 2952 2952 2951 2951
3024 3024 3023 3022 3021 3021 3020 3019 3018 3017 3016 3015 3014 3013 3012 3010 3009 3008 3007 3006 3005 3004 3002 3000 2998 2997 2996 2994 2992 2990 2989 2988 2988 2987 2987 2986 2985 2984 2983 2982 2981 2981 2980 2979 2978 2977 2977 2976 2975 2974 2973 2972 2971 2970 2969 2968 2967 2966 2965 2964 2963 2962 2961 2960 2959 2958 2957 2957 2956 2955 2954 2953 2953 2952 2952 2951 2951 2950 2950 2949 2949 2948 2948 2948 2947 2947
3022 3021 3020 3019 3018 3017 3017 3016 3015 3014 3012 3012 3011 3010 3008 3007 3005 3004 3002 3001 3000 2999 2997 2996 2995 2993 2992 2990 2988 2987 2986 2986 2985 2985 2985 2983 2982 2982 2981 2980 2980 2979 2978 2977 2977 2976 2975 2974 2973 2972 2971 2970 2969 2968 2967 2966 2965 2964 2963 2962 2961 2960 2959 2958 2957 2956 2955 2954 2953 2952 2951 2951 2950 2949 2948 2948 2947 2947 2947 2946 2946 2945 2945 2944 2944 2944
3018 3018 3017 3016 3015 3015 3014 3013 3012 3011 3010 3008 3007 3006 3005 3003 3002 3000 2999 2997 2996 2994 2993 2992 2991 2990 2989 2987 2986 2984 2984 2983 2983 2983 2983 2982 2981 2980 2979 2979 2978 2978 2977 2976 2975 2974 2973 2972 2971 2970 2969 2968 2967 2966 2965 2964 2963 2962 2961 2959 2958 2957 2956 2955 2954 2953 2952 2951 2950 2949 2948 2947 2947 2946 2945 2945 2944 2944 2943 2943 2942 2942 2942 2941 2940 2940
3016 3015 3014 3013 3012 3012 3010 3009 3008 3007 3006 3005 3003 3002 3001 2999 2998 2996 2995 2993 2992 2991 2990 2989 2988 2987 2987 2985 2984 2982 2982 2982 2982 2982 2981 2980 2979 2978 2978 2977 2976 2976 2975 2974 2973 2972 2971 2971 2970 2968 2967 2966 2965 2964 2963 2962 2961 2959 2958 2957 2956 2955 2954 2952 2952 2950 2949 2948 2947 2946 2945 2944 2944 2943 2942 2942 2941 2941 2940 2940 2939 2939 2938 2937 2937 2936
3013 3012 3011 3010 3009 3008 3007 3006 3005 3004 3003 3001 3000 2998 2997 2995 2994 2992 2991 2990 2988 2988 2987 2987 2986 2985 2985 2983 2982 2981 2980 2980 2980 2980 2980 2979 2977 2977 2976 2975 2975 2974 2973 2972 2971 2970 2969 2968 2967 2967 2965 2964 2963 2962 2961 2960 2958 2957 2956 2955 2953 2952 2951 2950 2949 2947 2946 2945 2944 2943 2942 2941 2941 2940 2939 2938 2938 2937 2937 2936 2936 2935 2935 2934 2933 2933
3010 3009 3008 3007 3007 3005 3004 3003 3002 3001 2999 2998 2996 2995 2993 2992 2991 2989 2988 2987 2986 2985 2985 2985 2984 2984 2983 2982 2981 2980 2979 2978 2978 2978 2978 2977 2976 2974 2974 2974 2973 2972 2971 2970 2969 2968 2967 2966 2965 2964 2963 2962 2961 2960 2958 2957 2956 2955 2953 2952 2951 2950 2948 2947 2946 2944 2943 2942 2941 2940 2939 2938 2937 2937 2936 2935 2935 2934 2933 2933 2932 2932 2931 2931 2930 2929
3008 3007 3006 3005 3003 3002 3001 3000 2999 2997 2996 2994 2993 2991 2990 2989 2988 2987 2986 2985 2984 2984 2983 2983 2982 2982 2981 2980 2979 2978 2978 2977 2976 2976 2976 2975 2974 2972 2972 2972 2971 2970 2969 2968 2967 2966 2965 2964 2963 2962 2961 2960 2958 2957 2956 2955 2953 2952 2951 2949 2948 2947 2945 2944 2943 2942 2940 2939 2938 2937 2936 2935 2934 2934 2933 2932 2931 2931 2930 2930 2929 2928 2928 2927 2927 2926
3005 3004 3002 3002 3000 2999 2998 2997 2995 2994 2992 2991 2990 2988 2987 2986 2985 2984 2984 2983 2983 2982 2982 2981 2981 2980 2980 2979 2977 2977 2977 2976 2975 2974 2974 2973 2972 2971 2970 2969 2968 2967 2967 2966 2965 2964 2963 2962 2961 2960 2959 2957 2956 2955 2953 2952 2951 2949 2948 2947 2945 2944 2942 2941 2940 2938 2937 2936 2935 2934 2933 2932 2931 2931 2930 2929 2928 2927 2927 2926 2926 2925 2924 2924 2923 2922
3002 3000 2999 2998 2997 2996 2995 2993 2992 2990 2989 2987 2987 2986 2985 2984 2983 2983 2982 2982 2981 2981 2980 2980 2979 2979 2978 2977 2976 2975 2974 2974 2973 2972 2972 2971 2970 2968 2968 2967 2966 2965 2965 2964 2963 2962 2960 2959 2958 2957 2956 2955 2953 2952 2951 2949 2948 2947 2945 2944 2942 2941 2940 2938 2937 2936 2934 2933 2932 2931 2930 2929 2928 2927 2927 2926 2925 2924 2924 2923 2923 2922 2921 2920 2920 2919
2998 2997 2996 2994 2993 2992 2991 2990 2988 2987 2986 2985 2984 2984 2983 2982 2982 2982 2981 2981 2980 2979 2979 2978 2978 2977 2976 2975 2974 2973 2972 2972 2971 2970 2969 2969 2968 2967 2966 2965 2964 2963 2962 2961 2960 2959 2958 2957 2956 2955 2954 2952 2951 2950 2948 2947 2946 2944 2943 2942 2940 2939 2937 2936 2934 2933 2932 2930 2929 2928 2927 2926 2925 2924 2923 2923 2922 2921 2921 2920 2919 2919 2918 2917 2916 2916
2995 2994 2993 2991 2990 2989 2988 2987 2986 2985 2984 2983 2982 2982 2982 2981 2981 2980 2980 2979 2979 2978 2977 2977 2976 2975 2975 2974 2972 2972 2971 2970 2969 2968 2967 2967 2966 2965 2964 2963 2962 2960 2959 2959 2958 2957 2956 2955 2954 2952 2951 2950 2949 2947 2946 2945 2943 2942 2941 2939 2938 2937 2935 2933 2932 2931 2929 2928 2927 2925 2924 2923 2922 2921 2920 2919 2919 2918 2917 2917 2916 2915 2915 2914 2913 2912
2992 2991 2990 2988 2987 2986 2985 2984 2983 2983 2982 2982 2981 2981 2980 2980 2979 2979 2978 2978 2977 2977 2976 2975 2975 2974 2973 2972 2971 2970 2969 2968 2967 2966 2965 2964 2963 2962 2961 2960 2959 2957 2957 2956 2955 2954 2953 2952 2952 2950 2949 2948 2947 2945 2944 2943 2942 2940 2939 2937 2936 2934 2933 2931 2930 2928 2927 2926 2924 2923 2922 2920 2919 2918 2917 2917 2916 2915 2914 2913 2913 2912 2911 2911 2910 2909
2989 2988 2987 2986 2985 2984 2983 2982 2982 2981 2981 2980 2980 2979 2979 2979 2978 2977 2977 2977 2976 2975 2975 2974 2973 2972 2971 2971 2969 2968 2967 2966 2964 2963 2962 2961 2961 2960 2959 2957 2956 2955 2954 2953 2952 2952 2951 2950 2949 2948 2947 2946 2944 2943 2942 2941 2939 2938 2937 2935 2934 2932 2931 2929 2928 2926 2925 2923 2922 2921 2919 2918 2917 2916 2915 2914 2913 2912 2911 2910 2910 2909 2908 2907 2907 2906
2986 2985 2985 2984 2983 2982 2982 2981 2980 2980 2979 2979 2978 2978 2978 2977 2977 2976 2976 2975 2974 2974 2973 2972 2972 2971 2970 2969 2967 2966 2965 2963 2962 2961 2959 2958 2957 2957 2956 2955 2953 2952 2951 2950 2950 2949 2948 2947 2947 2946 2944 2943 2942 2941 2940 2939 2937 2936 2935 2933 2932 2931 2929 2927 2926 2924 2923 2921 2920 2918 2917 2916 2914 2913 2912 2911 2910 2909 2908 2907 2907 2906 2905 2904 2903 2902
2984 2983 2982 2982 2981 2981 2980 2979 2979 2978 2978 2977 2977 2977 2976 2976 2975 2975 2974 2973 2973 2972 2971 2971 2970 2969 2968 2967 2966 2964 2963 2961 2960 2958 2957 2956 2955 2954 2953 2952 2951 2949 2947 2947 2947 2947 2946 2945 2944 2943 2942 2941 2940 2939 2938 2937 2935 2934 2933 2931 2930 2928 2927 2925 2923 2922 2921 2919 2917 2916 2915 2913 2912 2911 2909 2908 2907 2906 2905 2904 2903 2902 2901 2900 2900 2899
2981 2981 2980 2980 2979 2979 2978 2978 2977 2977 2977 2976 2976 2975 2975 2975 2974 2973 2972 2972 2971 2970 2969 2969 2968 2967 2966 2965 2964 2962 2961 2959 2957 2956 2955 2953 2952 2951 2951 2949 2948 2946 2945 2944 2944 2944 2943 2942 2942 2941 2940 2939 2937 2937 2936 2934 2933 2932 2931 2929 2927 2926 2924 2923 2921 2920 2918 2917 2915 2914 2912 2911 2909 2908 2907 2906 2904 2903 2902 2901 2900 2899 2898 2897 2896 2895
2979 2979 2978 2978 2978 2977 2977 2977 2976 2976 2975 2975 2975 2974 2974 2973 2972 2972 2971 2970 2969 2968 2967 2967 2966 2965 2964 2963 2962 2960 2959 2957 2955 2954 2952 2951 2950 2949 2948 2947 2945 2944 2942 2941 2941 2941 2941 2940 2939 2938 2937 2936 2935 2934 2933 2932 2930 2929 2927 2926 2925 2923 2922 2920 2919 2917 2916 2914 2913 2911 2910 2908 2907 2906 2904 2903 2902 2901 2899 2898 2897 2896 2895 2894 2892 2892
2977 2977 2977 2977 2976 2976 2976 2975 2975 2974 2974 2974 2973 2973 2972 2972 2971 2970 2969 2968 2967 2966 2965 2964 2963 2962 2962 2961 2960 2958 2957 2955 2953 2952 2950 2949 2948 2947 2946 2945 2943 2941 2940 2938 2937 2937 2938 2937 2936 2935 2934 2933 2932 2931 2930 2928 2927 2926 2924 2923 2922 2921 2919 2918 2916 2914 2913 2912 2910 2909 2907 2906 2905 2903 2902 2901 2899 2898 2897 2896 2894 2893 2891 2890 2889 2889
2976 2976 2976 2975 2975 2975 2974 2974 2974 2973 2973 2972 2972 2971 2971 2970 2969 2968 2967 2966 2965 2964 2963 2962 2962 2961 2960 2959 2958 2957 2955 2953 2951 2950 2948 2947 2946 2945 2944 2942 2941 2939 2937 2935 2933 2933 2934 2934 2933 2932 2931 2930 2929 2928 2927 2925 2924 2922 2921 2920 2919 2918 2917 2915 2913 2912 2910 2909 2908 2906 2905 2903 2902 2901 2899 2898 2897 2895 2894 2893 2891 2890 2888 2887 2886 2886
2975 2975 2974 2974 2974 2973 2973 2973 2972 2972 2972 2971 2970 2970 2969 2968 2967 2966 2965 2964 2963 2962 2962 2961 2960 2959 2958 2957 2956 2955 2953 2951 2949 2947 2946 2944 2943 2942 2941 2939 2938 2937 2935 2933 2931 2929 2928 2929 2930 2929 2928 2927 2926 2925 2924 2922 2921 2919 2918 2917 2916 2915 2913 2912 2910 2909 2907 2906 2905 2904 2902 2901 2899 2898 2897 2895 2894 2893 2892 2890 2888 2887 2885 2884 2883 2882
2974 2974 2973 2973 2973 2972 2972 2972 2971 2971 2970 2969 2968 2968 2967 2966 2965 2964 2963 2962 2962 2961 2960 2959 2958 2957 2956 2955 2954 2952 2951 2949 2947 2945 2944 2942 2941 2940 2939 2937 2936 2934 2933 2931 2929 2927 2925 2924 2924 2925 2924 2923 2923 2922 2921 2920 2918 2916 2915 2913 2912 2911 2910 2909 2907 2906 2904 2903 2902 2901 2899 2898 2897 2895 2894 2892 2891 2890 2889 2887 2886 2884 2882 2880 2879 2878
2973 2973 2972 2972 2972 2971 2971 2970 2970 2969 2968 2967 2967 2966 2965 2964 2963 2962 2962 2961 2960 2959 2958 2957 2956 2955 2954 2953 2952 2951 2949 2947 2946 2943 2942 2940 2939 2937 2937 2935 2933 2932 2930 2929 2927 2925 2922 2921 2920 2920 2920 2919 2919 2919 2918 2917 2915 2914 2912 2910 2909 2907 2907 2905 2903 2902 2901 2899 2898 2897 2896 2895 2893 2892 2891 2890 2888 2887 2886 2884 2883 2881 2879 2877 2876 2875
2972 2972 2971 2971 2970 2970 2969 2969 2968 2967 2967 2966 2965 2964 2963 2962 2962 2961 2960 2959 2958 2957 2957 2955 2954 2953 2952 2951 2950 2949 2947 2946 2944 2942 2940 2938 2937 2935 2934 2932 2931 2929 2927 2926 2924 2922 2921 2919 2917 2916 2915 2915 2915 2915 2914 2913 2912 2911 2909 2907 2906 2904 2903 2901 2900 2898 2897 2896 2895 2894 2892 2891 2890 2889 2888 2887 2885 2884 2883 2882 2880 2879 2877 2875 2873 2872
2971 2970 2970 2969 2969 2968 2967 2967 2966 2966 2965 2964 2963 2963 2962 2961 2960 2959 2958 2957 2957 2956 2955 2953 2952 2951 2950 2949 2948 2947 2946 2944 2942 2940 2938 2936 2934 2932 2931 2930 2928 2927 2925 2923 2922 2920 2918 2917 2916 2914 2912 2911 2911 2912 2911 2910 2909 2907 2907 2905 2903 2901 2900 2898 2896 2895 2893 2892 2891 2890 2889 2888 2887 2886 2885 2883 2882 2881 2880 2879 2877 2876 2874 2872 2871 2869
2969 2969 2968 2967 2967 2967 2966 2965 2965 2964 2963 2963 2962 2961 2961 2960 2959 2958 2957 2956 2955 2954 2953 2952 2951 2949 2948 2947 2946 2945 2943 2942 2940 2938 2936 2934 2932 2930 2929 2927 2926 2925 2923 2921 2920 2918 2916 2915 2913 2912 2910 2908 2907 2907 2907 2907 2906 2905 2903 2902 2901 2899 2897 2896 2893 2892 2890 2889 2888 2887 2886 2885 2883 2882 2881 2880 2879 2878 2877 2876 2874 2873 2872 2870 2868 2866
2967 2967 2967 2966 2966 2965 2964 2964 2963 2963 2962 2962 2961 2960 2959 2958 2957 2956 2955 2954 2953 2952 2951 2950 2949 2947 2946 2945 2944 2942 2941 2940 2938 2936 2934 2932 2930 2928 2927 2925 2924 2923 2921 2919 2917 2916 2914 2912 2911 2910 2908 2907 2905 2904 2903 2903 2902 2902 2901 2899 2898 2897 2895 2893 2891 2889 2887 2886 2885 2884 2882 2882 2880 2879 2878 2877 2876 2875 2873 2872 2871 2870 2868 2867 2865 2864
2966 2966 2965 2965 2964 2964 2963 2962 2962 2962 2961 2960 2959 2958 2957 2957 2956 2955 2953 2952 2952 2950 2949 2948 2947 2946 2945 2943 2942 2940 2939 2937 2936 2934 2932 2931 2929 2927 2925 2924 2923 2922 2920 2918 2916 2914 2913 2911 2909 2907 2906 2905 2903 2902 2901 2900 2899 2898 2897 2896 2895 2894 2892 2891 2889 2887 2885 2883 2882 2881 2880 2878 2877 2876 2875 2873 2872 2871 2870 2869 2868 2867 2865 2864 2863 2862
2965 2964 2964 2963 2963 2962 2962 2961 2961 2960 2959 2958 2957 2957 2956 2955 2954 2953 2952 2951 2949 2948 2947 2946 2945 2944 2943 2942 2940 2939 2937 2936 2934 2933 2931 2929 2927 2926 2924 2922 2921 2920 2918 2917 2915 2913 2911 2909 2907 2905 2903 2902 2901 2900 2899 2898 2896 2895 2893 2892 2891 2891 2890 2888 2886 2884 2882 2881 2879 2878 2877 2875 2874 2873 2871 2870 2869 2868 2867 2866 2865 2863 2862 2861 2860 2859
2964 2963 2963 2962 2962 2961 2961 2960 2959 2958 2957 2957 2956 2955 2954 2953 2952 2951 2950 2949 2947 2946 2945 2944 2943 2942 2941 2940 2938 2937 2935 2934 2932 2931 2930 2928 2926 2924 2923 2921 2919 2918 2917 2915 2914 2912 2910 2908 2906 2904 2902 2900 2898 2897 2896 2895 2894 2892 2890 2888 2887 2887 2887 2886 2884 2882 2880 2878 2877 2875 2874 2872 2871 2870 2868 2867 2866 2865 2863 2862 2861 2860 2859 2858 2857 2856
2962 2962 2962 2961 2960 2960 2959 2958 2957 2957 2956 2955 2954 2953 2952 2951 2950 2949 2948 2947 2946 2944 2943 2942 2941 2940 2939 2938 2937 2935 2933 2932 2931 2929 2928 2926 2925 2923 2921 2920 2918 2917 2915 2913 2912 2910 2909 2907 2904 2902 2900 2898 2896 2894 2893 2893 2892 2890 2887 2885 2883 2882 2883 2882 2882 2880 2877 2876 2874 2872 2871 2869 2868 2867 2865 2864 2863 2862 2861 2859 2858 2857 2857 2856 2855 2854
2961 2961 2960 2960 2959 2958 2957 2957 2956 2955 2954 2953 2952 2952 2950 2949 2948 2947 2946 2945 2944 2942 2941 2940 2939 2938 2937 2936 2935 2933 2932 2930 2929 2927 2926 2924 2923 2921 2919 2918 2916 2915 2913 2911 2910 2908 2907 2905 2903 2901 2899 2897 2894 2892 2891 2890 2889 2888 2886 2883 2881 2879 2879 2879 2879 2877 2875 2873 2872 2870 2868 2866 2865 2863 2862 2861 2860 2859 2858 2857 2856 2855 2855 2854 2853 2852
2960 2959 2959 2958 2957 2957 2956 2955 2954 2953 2952 2952 2951 2950 2948 2947 2946 2945 2944 2943 2942 2940 2939 2938 2937 2936 2934 2934 2933 2932 2930 2928 2927 2926 2924 2922 2921 2919 2917 2916 2914 2912 2911 2909 2907 2906 2904 2902 2901 2899 2897 2894 2892 2890 2888 2887 2886 2885 2883 2881 2879 2877 2875 2875 2875 2874 2872 2871 2869 2867 2866 2864 2862 2861 2860 2859 2858 2857 2856 2855 2854 2854 2853 2852 2851 2850
2958 2958 2957 2957 2956 2955 2954 2953 2952 2952 2951 2950 2949 2948 2947 2945 2944 2943 2942 2941 2939 2938 2937 2936 2934 2933 2932 2931 2930 2929 2928 2927 2926 2924 2922 2921 2919 2917 2915 2913 2912 2910 2908 2907 2905 2903 2902 2900 2898 2897 2895 2892 2890 2888 2886 2885 2883 2882 2881 2879 2877 2875 2873 2872 2871 2870 2869 2868 2867 2865 2863 2862 2860 2858 2857 2856 2855 2855 2854 2853 2852 2852 2851 2850 2850 2849
2957 2956 2956 2955 2954 2953 2952 2952 2951 2950 2949 2948 2947 2946 2945 2943 2942 2941 2940 2938 2937 2936 2935 2933 2932 2931 2930 2929 2928 2927 2926 2925 2924 2922 2921 2919 2917 2915 2913 2911 2909 2908 2906 2904 2902 2901 2899 2897 2896 2894 2893 2891 2888 2887 2885 2882 2881 2879 2878 2877 2875 2873 2872 2870 2869 2867 2866 2865 2863 2862 2861 2859 2857 2856 2854 2853 2853 2852 2852 2851 2851 2850 2850 2849 2848 2847
2955 2955 2954 2953 2952 2952 2951 2950 2949 2948 2947 2946 2945 2944 2943 2942 2940 2939 2938 2937 2935 2934 2932 2931 2930 2929 2928 2927 2926 2925 2923 2922 2922 2921 2919 2917 2915 2913 2911 2909 2907 2906 2904 2902 2900 2898 2897 2895 2893 2892 2890 2888 2886 2885 2883 2881 2879 2877 2875 2874 2872 2871 2870 2868 2867 2865 2863 2862 2861 2859 2858 2857 2855 2853 2852 2851 2850 2850 2850 2849 2849 2848 2848 2847 2846 2846
2954 2953 2952 2952 2951 2950 2949 2948 2947 2947 2946 2945 2943 2942 2941 2940 2938 2937 2936 2934 2933 2932 2931 2929 2928 2927 2925 2924 2923 2922 2921 2920 2919 2918 2917 2915 2913 2912 2909 2907 2906 2904 2902 2900 2898 2896 2895 2893 2892 2890 2888 2886 2884 2882 2881 2879 2877 2875 2872 2871 2870 2868 2867 2866 2865 2863 2862 2860 2858 2857 2855 2854 2852 2851 2849 2848 2848 2847 2847 2847 2847 2847 2846 2845 2844 2844
2952 2952 2951 2950 2949 2948 2947 2947 2946 2945 2944 2943 2942 2941 2939 2938 2937 2935 2934 2932 2931 2930 2928 2927 2926 2924 2923 2922 2921 2919 2918 2917 2916 2915 2914 2913 2911 2909 2907 2906 2904 2902 2900 2898 2896 2894 2892 2891 2889 2888 2887 2885 2882 2880 2878 2877 2875 2873 2871 2869 2867 2865 2864 2862 2862 2861 2859 2857 2856 2854 2853 2852 2850 2848 2847 2846 2845 2845 2845 2845 2845 2844 2844 2843 2842 2842
2951 2950 2949 2948 2948 2947 2946 2945 2944 2943 2942 2941 2940 2939 2937 2936 2935 2933 2932 2930 2929 2927 2926 2925 2923 2922 2921 2920 2918 2917 2916 2914 2913 2912 2911 2910 2908 2907 2905 2903 2902 2900 2897 2896 2894 2892 2890 2888 2887 2886 2885 2883 2881 2878 2875 2874 2872 2871 2868 2866 2864 2862 2860 2859 2858 2857 2856 2855 2853 2852 2851 2849 2848 2846 2845 2843 2842 2842 2842 2842 2842 2842 2842 2841 2840 2839
2949 2949 2948 2947 2946 2945 2944 2943 2942 2942 2941 2939 2938 2937 2936 2934 2933 2931 2930 2928 2927 2925 2924 2922 2921 2920 2919 2917 2916 2915 2913 2912 2911 2909 2908 2907 2905 2904 2902 2901 2899 2897 2895 2893 2891 2889 2887 2885 2884 2884 2883 2882 2879 2876 2873 2871 2869 2867 2866 2864 2862 2860 2857 2856 2855 2854 2853 2852 2851 2850 2848 2847 2846 2844 2843 2841 2840 2839 2839 2840 2840 2840 2839 2839 2838 2837
2948 2947 2946 2945 2945 2944 2943 2942 2941 2940 2938 2937 2936 2935 2934 2932 2931 2929 2927 2926 2924 2923 2922 2920 2919 2917 2916 2915 2913 2912 2911 2909 2908 2907 2906 2904 2903 2901 2899 2898 2896 2894 2892 2890 2888 2886 2884 2882 2880 2880 2881 2881 2879 2875 2872 2869 2867 2865 2863 2861 2860 2858 2856 2854 2852 2851 2850 2849 2848 2847 2846 2845 2843 2842 2841 2839 2837 2836 2836 2837 2837 2837 2837 2836 2835 2834